This is the latest recevied weather packets stored in our database for station/object VK6JI-11. If no packets are shown the sender has not sent any weather packets the latest 10 day(s).
| Time | Temp. | Humidity | Pressure | Rain* | Wind** | Luminosity | Snow |
|---|---|---|---|---|---|---|---|
| 1777614459 | 18.33° C | 51% | 1021.4 hPa | 0 mm | - | 600 W/m² | - |
| 1777614339 | 18.33° C | 51% | 1021.5 hPa | 0 mm | - | 601 W/m² | - |
| 1777614219 | 18.33° C | 52% | 1021.5 hPa | 0 mm | - | 610 W/m² | - |
| 1777614099 | 18.33° C | 52% | 1021.5 hPa | 0 mm | - | 621 W/m² | - |
| 1777613979 | 18.33° C | 53% | 1021.3 hPa | 0 mm | - | 658 W/m² | - |
| 1777613858 | 17.78° C | 53% | 1021.3 hPa | 0 mm | - | 695 W/m² | - |
| 1777613738 | 17.78° C | 54% | 1021.5 hPa | 0 mm | - | 689 W/m² | - |
| 1777613619 | 17.78° C | 53% | 1021.4 hPa | 0 mm | - | 700 W/m² | - |
| 1777613498 | 17.78° C | 53% | 1021.5 hPa | 0 mm | - | 517 W/m² | - |
| 1777613379 | 17.78° C | 53% | 1021.4 hPa | 0 mm | - | 728 W/m² | - |
| 1777613259 | 17.78° C | 54% | 1021.5 hPa | 0 mm | - | 612 W/m² | - |
| 1777613138 | 17.22° C | 53% | 1021.5 hPa | 0 mm | - | 350 W/m² | - |
| 1777613018 | 17.22° C | 54% | 1021.6 hPa | 0 mm | - | 550 W/m² | - |
| 1777612898 | 17.22° C | 52% | 1021.6 hPa | 0 mm | - | 730 W/m² | - |
| 1777612778 | 17.22° C | 54% | 1021.6 hPa | 0 mm | - | 716 W/m² | - |
| 1777612657 | 17.22° C | 56% | 1021.6 hPa | 0 mm | - | 403 W/m² | - |
| 1777612537 | 17.22° C | 55% | 1021.7 hPa | 0 mm | - | 790 W/m² | - |
| 1777612417 | 17.22° C | 55% | 1021.7 hPa | 0 mm | - | 385 W/m² | - |
| 1777612296 | 17.22° C | 55% | 1021.7 hPa | 0 mm | - | 299 W/m² | - |
| 1777612175 | 17.22° C | 54% | 1021.8 hPa | 0 mm | - | 473 W/m² | - |
| 1777612055 | 17.22° C | 54% | 1021.7 hPa | 0 mm | - | 345 W/m² | - |
| 1777611937 | 17.22° C | 54% | 1021.8 hPa | 0 mm | - | 352 W/m² | - |
| 1777611814 | 17.22° C | 55% | 1021.8 hPa | 0 mm | - | 368 W/m² | - |
| 1777611692 | 17.22° C | 57% | 1021.9 hPa | 0 mm | - | 302 W/m² | - |
| 1777611570 | 17.22° C | 58% | 1021.8 hPa | 0 mm | - | 310 W/m² | - |
* Rain latest hour (hover to see other rain measurements)
** Current wind speed in m/s (hover to see current wind gust speed)